sat.trackr.live / text

‹ back to catalog

STARLINK-3459

NORAD 51757 · 2022-016AV

PAYLOAD ACTIVE UNKNOWN

§ Identity

Operator
Country
US
Launch date
2022-02-21
Launch site
AFETR
Launch vehicle
Mass (kg)
RCS (m²)

Purposes: comms

External: N2YO · Heavens-Above · Gunter

§ Orbital elements

Epoch: 2026-05-24T21:41:18.191328Z

Period
95.44 min
Inclination
53.2136°
Eccentricity
0.0000819
Mean motion
15.08843629 rev/d
Perigee alt
539.2 km
Apogee alt
540.3 km
Semi-major
6,917.9 km
B*
4.2549e-5
RAAN
326.9916°
Arg perigee
51.1820°
Mean anomaly
308.9245°
Rev number
23,521

§ Raw data

STARLINK-34591 51757U 22016AV  26144.90368277  .00000390  00000+0  42549-4 0  99942 51757  53.2136 326.9916 0000819  51.1820 308.9245 15.08843629235218

JSON: /api/v1/satellites/51757 · /tle

For live sub-satellite position, see the globe view (requires WebGL).

§ Visibility from observer

Set your observer location to see the next 7 days of passes ≥ 10°. The values pass through the URL so the page stays shareable.

No JS? Fill the form by hand. The geolocation button needs JavaScript.